Back to catalog

STARLINK-6037

AliveCommunicationsVLEO
NORAD 56461·PAYLOAD·🇺🇸 United States

Launched May 10, 2023 from Vandenberg Space Force Base

Loading…

Next Passes (next 24 hours)

TLE

FreshSource: CelesTrak SupGP

Epoch: Sep 15, 2026, 01:44 UTC

1 56461C 23064P   26258.07270833 -.00023893  00000+0 -20026-2 0  2586
2 56461  70.0031  26.7954 0003049 270.2092 236.2076 14.98336938    17

Track STARLINK-6037 in real time with AllMySat

Download on the App Store